[Iaude] MPEC B119: 2019 BV2 [a=1.31,e=0.50,i=0.7,H=25.3]

mpec at mpcdb1.cfa.harvard.edu mpec at mpcdb1.cfa.harvard.edu
Sun Jan 27 17:49:16 EST 2019


M.P.E.C. 2019-B119                               Issued 2019 Jan. 27, 22:45 UT
 
     The Minor Planet Electronic Circulars contain information on unusual
         minor planets and routine data on comets.  They are published
    on behalf of Division F of the International Astronomical Union by the
          Minor Planet Center, Smithsonian Astrophysical Observatory,
                          Cambridge, MA 02138, U.S.A.

             Prepared using the Tamkin Foundation Computer Network

                              MPC at CFA.HARVARD.EDU
            URL https://www.minorplanetcenter.net/    ISSN 1523-6714


                                   2019 BV2
 
Observations:
     K19B02V* C2019 01 26.08344 05 30 37.36 +19 39 41.1          19.4 GVEB119G96
     K19B02V  C2019 01 26.08908 05 30 22.05 +19 39 25.7          19.3 GVEB119G96
     K19B02V  C2019 01 26.09467 05 30 07.07 +19 39 11.6          19.4 GVEB119G96
     K19B02V  C2019 01 26.18749105 25 49.43 +19 34 25.8          19.7 GVEB119H01
     K19B02V  C2019 01 26.19392305 25 31.28 +19 34 04.3          18.9 GVEB119H01
     K19B02V  C2019 01 26.20459105 25 01.17 +19 33 27.8          19.1 GVEB119H01
     K19B02V  C2019 01 26.21499505 24 31.69 +19 32 51.4          19.1 GVEB119H01
     K19B02V KC2019 01 26.23072405 23 48.30 +19 31 43.3          20.0 VtEB119V03
     K19B02V KC2019 01 26.23380505 23 39.62 +19 31 31.5                tEB119V03
     K19B02V KC2019 01 26.24689 05 23 02.21 +19 30 44.4          18.8 GVEB119V03
     K19B02V KC2019 01 26.24890 05 22 56.44 +19 30 36.5          19.1 GVEB119V03
     K19B02V KC2019 01 26.25091 05 22 50.61 +19 30 29.8          19.0 GVEB119V03
     K19B02V  C2019 01 26.30078 05 20 26.25 +19 27 33.9          19.2 GVEB119I52
     K19B02V  C2019 01 26.30133 05 20 24.67 +19 27 31.6          19.4 GVEB119I52
     K19B02V  C2019 01 26.30188 05 20 23.02 +19 27 29.1          19.0 GVEB119I52
     K19B02V  C2019 01 26.30243 05 20 21.44 +19 27 27.3          19.1 GVEB119I52
     K19B02V  C2019 01 26.35617 05 17 44.93 +19 23 38.3          19.3 GVEB119I52
     K19B02V  C2019 01 26.35673 05 17 43.30 +19 23 35.4          19.0 GVEB119I52
     K19B02V  C2019 01 26.35728 05 17 41.66 +19 23 32.7          19.3 GVEB119I52
     K19B02V IC2019 01 26.95561904 46 01.79 +18 28 25.6          19.5 GVEB119L01
     K19B02V KC2019 01 26.96036404 45 44.84 +18 27 49.7          19.4 GVEB119L01
     K19B02V pC2019 01 26.96273804 45 36.35 +18 27 31.7          19.7 GVEB119L01
     K19B02V KC2019 01 27.03595 04 41 37.36 +18 19 20.6          19.8 GUEB119H36
     K19B02V KC2019 01 27.03988 04 41 22.70 +18 18 50.9          19.5 GUEB119H36
     K19B02V KC2019 01 27.07580 04 39 13.98 +18 14 17.9          19.4 GoEB119V03
     K19B02V KC2019 01 27.09284 04 38 10.34 +18 12 05.3          19.2 GoEB119V03
     K19B02V  C2019 01 27.09493 04 38 02.55 +18 12 13.7          18.8 GVEB119I52
     K19B02V  C2019 01 27.09570 04 37 59.70 +18 12 08.1          19.0 GVEB119I52
     K19B02V  C2019 01 27.09609 04 37 58.23 +18 12 05.0          18.9 GVEB119I52
     K19B02V KC2019 01 27.82084203 49 08.99 +15 58 55.6          19.6 GVEB119J95
     K19B02V KC2019 01 27.82270503 49 00.63 +15 58 29.9          19.4 GVEB119J95
     K19B02V KC2019 01 27.82518803 48 49.47 +15 57 54.9          19.2 GVEB119J95
     K19B02V KC2019 01 27.82721003 48 40.36 +15 57 26.4          19.8 GVEB119J95
 
Observer details:
G96 Mt. Lemmon Survey.  Observer G. J. Leonard.  Measurers B. M. Africano,
    E. J. Christensen, G. A. Farneth, D. C. Fuls, A. R. Gibbs, A. D. Grauer,
    H. Groeller, R. A. Kowalski, S. M. Larson, G. J. Leonard, T. A. Pruyne,
    R. L. Seaman, F. C. Shelly.  1.5-m reflector + 10K CCD.
H01 Magdalena Ridge Observatory, Socorro.  Observers W. H. Ryan, E. V. Ryan.
    Measurer W. H. Ryan.  2.4-m f/8.9 Ritchey-Chretien + CCD.
H36 Sandlot Observatory, Scranton.  Observer G. Hug.  0.56-m reflector + CCD.
I52 Steward Observatory, Mt. Lemmon Station.  Observer B. M. Africano.
    Measurers B. M. Africano, E. J. Christensen, G. A. Farneth, D. C. Fuls,
    A. R. Gibbs, A. D. Grauer, H. Groeller, R. A. Kowalski, S. M. Larson,
    G. J. Leonard, T. A. Pruyne, R. L. Seaman, F. C. Shelly.  1.0-m reflector
    + CCD.
J95 Great Shefford.  Observer P. Birtwhistle.  0.41-m f/6.3
    Schmidt-Cassegrain + CCD.
L01 Visnjan Observatory, Tican.  Observer K. Korlevic.  1.0-m f/2.9 reflector
    + CCD.
V03 Big Water.  Observer D. Rankin.  0.30-m reflector + CCD.
 
Orbital elements:
2019 BV2                                                 Earth MOID = 0.0008 AU
Epoch 2019 Apr. 27.0 TT = JDT 2458600.5                 MPC
M  22.51629              (2000.0)            P               Q
n   0.65403510     Peri.   82.14492     -0.79930715     +0.60086786
a   1.3144236      Node   134.78670     -0.55574436     -0.73400812
e   0.5000763      Incl.    0.65529     -0.22859634     -0.31652786
P   1.51           H   25.3           G   0.15           U   7
Residuals in seconds of arc
190126 G96  0.1-  0.3+    190126 V03  0.9-  0.8+    190127 H36  1.0+  0.4-
190126 G96  1.5-  0.2-    190126 I52  0.3+  0.2-    190127 H36  1.5-  0.8-
190126 G96  0.5+  0.6+    190126 I52  0.5+  0.3-    190127 V03  1.3-  0.1-
190126 H01  0.1+  0.1-    190126 I52  0.2-  0.5-    190127 V03  0.5+  0.1-
190126 H01  0.4-  0.0     190126 I52  0.0   0.1-    190127 I52  0.0   0.1+
190126 H01  0.1-  0.1-    190126 I52  0.1+  0.3+    190127 I52  0.7+  0.5+
190126 H01  0.1-  0.2-    190126 I52  0.2+  0.1-    190127 I52  0.6+  0.5+
190126 V03  0.4-  0.3+    190126 I52  0.2-  0.4-    190127 J95  0.2+  0.1-
190126 V03  1.0+  0.4-    190126 L01  0.3+  0.3+    190127 J95  0.2+  0.3+
190126 V03  0.4+  0.4+    190126 L01  0.4-  0.1+    190127 J95  0.0   0.0
190126 V03  0.2+  0.0     190126 L01  0.7-  0.0     190127 J95  0.4-  0.1-

Ephemeris:
2019 BV2                 a,e,i = 1.31, 0.50, 1                   q = 0.6571
Date    TT    R. A. (2000) Decl.     Delta      r     Elong.  Phase     V
2018 12 28    08 16 18.3 +18 11 41   0.2913  1.2512   153.7    20.4    24.1
...
2019 01 12    08 02 08.4 +18 31 20   0.1472  1.1294   172.2     6.8    21.9
...
2019 01 20    07 28 09.4 +19 26 40   0.07854 1.0616   171.0     8.3    20.5
...
2019 01 26    05 34 04.5 +19 44 49   0.03361 1.0098   138.3    40.4    19.5
2019 01 27    04 43 40.4 +18 25 54   0.02819 1.0012   125.3    53.4    19.5
2019 01 28    03 35 54.3 +15 18 38   0.02451 0.9925   107.8    70.8    19.7
...
2019 02 03    22 32 48.3 -09 39 44   0.04896 0.9406    22.7   156.2    28.4
...
2019 02 11    21 26 58.6 -14 21 23   0.1145  0.8724     2.3   177.4
...
2019 02 26    21 06 41.1 -15 34 53   0.2599  0.7560    22.4   150.1    30.2

A. U. Tomatic                (C) Copyright 2019 MPC           M.P.E.C. 2019-B119



More information about the Iaude mailing list